QPF
0.03 0.03 0.02 0.02 0.02 0.03 0.04 0.04 0.03 0.02 0.01 0.01 0.01 0.01 0.01 0.00 0.01 0.01 0.01 0.01 0.01 0.01 0.01 0.01 0.01 0.01 0.02 0.03 0.05 0.08 0.11 0.09 0.09 0.09 0.08 0.07 0.06 0.05
0.02 0.02 0.02 0.01 0.02 0.03 0.03 0.04 0.03 0.03 0.02 0.01 0.00 0.00 0.01 0.00 0.00 0.00 0.01 0.01 0.01 0.02 0.02 0.03 0.02 0.02 0.03 0.03 0.03 0.03 0.05 0.07 0.08 0.06 0.06 0.06 0.07 0.05
0.02 0.02 0.02 0.02 0.03 0.03 0.03 0.04 0.03 0.02 0.01 0.00 0.00 0.00 0.00 0.00 0.00 0.00 0.00 0.00 0.01 0.02 0.02 0.03 0.03 0.04 0.04 0.03 0.02 0.02 0.02 0.04 0.06 0.06 0.04 0.05 0.05 0.04
0.02 0.02 0.01 0.01 0.02 0.04 0.04 0.03 0.02 0.02 0.01 0.01 0.00 0.00 0.00 0.00 0.00 0.00 0.00 0.00 0.01 0.01 0.02 0.03 0.03 0.04 0.04 0.03 0.02 0.02 0.02 0.03 0.03 0.03 0.03 0.02 0.02 0.03
0.05 0.02 0.01 0.01 0.01 0.02 0.02 0.02 0.02 0.02 0.02 0.01 0.01 0.00 0.01 0.00 0.01 0.00 0.00 0.00 0.00 0.01 0.01 0.02 0.02 0.03 0.03 0.03 0.03 0.03 0.03 0.03 0.02 0.02 0.02 0.02 0.02 0.03
0.05 0.04 0.03 0.02 0.01 0.01 0.02 0.02 0.02 0.02 0.02 0.02 0.01 0.01 0.01 0.01 0.01 0.00 0.00 0.00 0.00 0.00 0.01 0.01 0.02 0.02 0.02 0.02 0.02 0.02 0.02 0.03 0.02 0.02 0.02 0.02 0.02 0.02
0.02 0.02 0.03 0.03 0.03 0.02 0.03 0.02 0.02 0.02 0.02 0.02 0.02 0.01 0.01 0.01 0.01 0.01 0.01 0.01 0.01 0.00 0.00 0.01 0.01 0.01 0.01 0.01 0.01 0.01 0.01 0.01 0.01 0.01 0.02 0.02 0.02 0.02
0.02 0.02 0.02 0.02 0.03 0.03 0.03 0.02 0.02 0.02 0.02 0.02 0.01 0.01 0.01 0.01 0.01 0.01 0.01 0.01 0.01 0.01 0.00 0.01 0.01 0.01 0.01 0.01 0.00 0.00 0.00 0.01 0.01 0.01 0.01 0.02 0.02 0.02
0.01 0.01 0.01 0.02 0.02 0.01 0.02 0.02 0.02 0.02 0.02 0.02 0.01 0.01 0.02 0.02 0.02 0.02 0.02 0.02 0.01 0.01 0.01 0.01 0.01 0.01 0.01 0.01 0.00 0.00 0.00 0.00 0.01 0.01 0.01 0.01 0.01 0.01
0.01 0.01 0.01 0.01 0.01 0.01 0.01 0.01 0.01 0.01 0.01 0.01 0.01 0.01 0.01 0.02 0.02 0.02 0.02 0.03 0.02 0.01 0.01 0.01 0.01 0.01 0.01 0.01 0.01 0.00 0.00 0.00 0.00 0.00 0.01 0.01 0.01 0.01
0.01 0.01 0.02 0.01 0.01 0.01 0.01 0.01 0.01 0.01 0.01 0.02 0.01 0.01 0.01 0.01 0.01 0.01 0.01 0.02 0.02 0.01 0.01 0.01 0.01 0.01 0.01 0.01 0.01 0.00 0.00 0.00 0.00 0.00 0.01 0.01 0.01 0.01
0.01 0.01 0.02 0.02 0.02 0.01 0.01 0.00 0.00 0.01 0.01 0.01 0.01 0.01 0.00 0.00 0.00 0.00 0.01 0.01 0.01 0.01 0.01 0.01 0.01 0.01 0.01 0.01 0.01 0.00 0.00 0.00 0.00 0.00 0.00 0.01 0.01 0.01
0.01 0.01 0.01 0.01 0.01 0.02 0.01 0.01 0.01 0.01 0.01 0.01 0.01 0.00 0.00 0.01 0.00 0.00 0.00 0.01 0.01 0.02 0.01 0.01 0.01 0.00 0.00 0.00 0.00 0.00 0.01 0.00 0.00 0.00 0.01 0.00 0.01 0.01
0.01 0.01 0.00 0.01 0.01 0.01 0.01 0.01 0.01 0.01 0.01 0.01 0.01 0.00 0.00 0.01 0.01 0.01 0.01 0.01 0.01 0.01 0.00 0.01 0.01 0.01 0.01 0.01 0.01 0.00 0.00 0.01 0.01 0.01 0.01 0.00 0.00 0.01
0.02 0.01 0.01 0.01 0.01 0.01 0.01 0.01 0.01 0.01 0.01 0.01 0.00 0.00 0.00 0.01 0.01 0.01 0.02 0.01 0.01 0.01 0.00 0.01 0.01 0.01 0.01 0.01 0.01 0.01 0.01 0.01 0.01 0.01 0.01 0.01 0.01 0.01
0.02 0.02 0.02 0.02 0.02 0.01 0.01 0.01 0.01 0.01 0.01 0.00 0.00 0.00 0.00 0.01 0.01 0.01 0.01 0.01 0.01 0.01 0.00 0.00 0.01 0.02 0.01 0.01 0.01 0.01 0.01 0.02 0.02 0.03 0.02 0.02 0.02 0.02
0.04 0.03 0.03 0.02 0.02 0.02 0.02 0.01 0.01 0.01 0.01 0.00 0.00 0.00 0.00 0.01 0.01 0.01 0.01 0.01 0.01 0.01 0.01 0.01 0.02 0.03 0.02 0.02 0.02 0.02 0.02 0.03 0.03 0.04 0.04 0.03 0.03 0.02
0.05 0.05 0.05 0.05 0.05 0.04 0.04 0.03 0.03 0.02 0.01 0.01 0.01 0.00 0.01 0.01 0.01 0.02 0.02 0.02 0.02 0.02 0.02 0.02 0.03 0.04 0.04 0.04 0.04 0.03 0.03 0.03 0.04 0.05 0.06 0.05 0.04 0.03
0.04 0.05 0.05 0.05 0.05 0.06 0.05 0.05 0.05 0.04 0.04 0.03 0.01 0.01 0.01 0.01 0.01 0.02 0.02 0.02 0.02 0.02 0.02 0.03 0.04 0.04 0.04 0.04 0.03 0.04 0.05 0.05 0.05 0.06 0.06 0.06 0.05 0.05
0.03 0.03 0.02 0.02 0.01 0.01 0.01 0.02 0.02 0.02 0.02 0.02 0.01 0.01 0.02 0.02 0.02 0.02 0.02 0.02 0.02 0.03 0.04 0.04 0.04 0.05 0.04 0.03 0.03 0.04 0.05 0.07 0.08 0.08 0.06 0.04 0.05 0.04
0.02 0.02 0.02 0.02 0.01 0.01 0.00 0.01 0.01 0.01 0.01 0.01 0.01 0.01 0.02 0.03 0.03 0.02 0.03 0.05 0.05 0.04 0.04 0.04 0.05 0.05 0.04 0.04 0.05 0.05 0.06 0.06 0.07 0.07 0.05 0.02 0.03 0.03
0.02 0.02 0.01 0.01 0.01 0.01 0.01 0.01 0.01 0.01 0.01 0.00 0.01 0.01 0.01 0.01 0.01 0.02 0.03 0.04 0.04 0.03 0.04 0.05 0.05 0.05 0.05 0.06 0.05 0.04 0.04 0.05 0.06 0.07 0.05 0.02 0.01 0.03
0.03 0.02 0.02 0.01 0.01 0.01 0.01 0.01 0.01 0.01 0.01 0.01 0.01 0.01 0.01 0.01 0.01 0.01 0.02 0.03 0.04 0.04 0.04 0.04 0.04 0.05 0.06 0.06 0.05 0.05 0.04 0.05 0.05 0.05 0.03 0.02 0.02 0.03
MSLP
1020.42 1020.63 1020.86 1021.12 1021.39 1021.68 1021.97 1022.24 1022.51 1022.74 1022.94 1023.10 1023.21 1023.25 1023.24 1023.17 1023.06 1022.92 1022.76 1022.62 1022.49 1022.40 1022.35 1022.33 1022.32 1022.32 1022.30 1022.24 1022.15 1022.01 1021.83 1021.62 1021.38 1021.13 1020.87 1020.60 1020.31 1020.00
1020.55 1020.71 1020.88 1021.06 1021.25 1021.46 1021.70 1021.95 1022.22 1022.48 1022.74 1022.96 1023.14 1023.25 1023.29 1023.25 1023.14 1022.98 1022.78 1022.57 1022.38 1022.23 1022.12 1022.06 1022.03 1022.01 1022.00 1021.96 1021.89 1021.78 1021.63 1021.44 1021.23 1021.00 1020.76 1020.51 1020.24 1019.96
1020.72 1020.86 1020.98 1021.10 1021.23 1021.38 1021.57 1021.79 1022.05 1022.34 1022.64 1022.93 1023.17 1023.35 1023.44 1023.43 1023.33 1023.15 1022.91 1022.65 1022.39 1022.16 1021.98 1021.85 1021.76 1021.71 1021.67 1021.62 1021.55 1021.45 1021.30 1021.13 1020.94 1020.73 1020.51 1020.28 1020.05 1019.81
1020.92 1021.06 1021.16 1021.24 1021.33 1021.43 1021.58 1021.77 1022.03 1022.33 1022.66 1022.99 1023.28 1023.52 1023.66 1023.69 1023.60 1023.42 1023.15 1022.84 1022.51 1022.21 1021.95 1021.74 1021.58 1021.46 1021.37 1021.28 1021.17 1021.05 1020.90 1020.72 1020.53 1020.33 1020.14 1019.95 1019.75 1019.55
1021.11 1021.26 1021.37 1021.44 1021.50 1021.58 1021.69 1021.87 1022.10 1022.40 1022.74 1023.10 1023.43 1023.70 1023.88 1023.95 1023.89 1023.71 1023.44 1023.09 1022.72 1022.36 1022.02 1021.73 1021.49 1021.29 1021.11 1020.96 1020.79 1020.62 1020.43 1020.23 1020.03 1019.83 1019.65 1019.49 1019.34 1019.19
1021.27 1021.45 1021.57 1021.64 1021.70 1021.76 1021.86 1022.01 1022.22 1022.51 1022.84 1023.20 1023.54 1023.84 1024.05 1024.15 1024.11 1023.96 1023.70 1023.35 1022.96 1022.55 1022.16 1021.80 1021.47 1021.18 1020.92 1020.67 1020.42 1020.18 1019.93 1019.69 1019.46 1019.25 1019.07 1018.93 1018.82 1018.72
1021.37 1021.57 1021.71 1021.81 1021.88 1021.94 1022.02 1022.15 1022.34 1022.59 1022.90 1023.24 1023.58 1023.88 1024.10 1024.22 1024.23 1024.11 1023.88 1023.56 1023.17 1022.75 1022.32 1021.90 1021.50 1021.12 1020.76 1020.41 1020.07 1019.74 1019.41 1019.11 1018.83 1018.60 1018.41 1018.28 1018.19 1018.13
1021.38 1021.61 1021.78 1021.90 1021.99 1022.06 1022.14 1022.25 1022.41 1022.63 1022.89 1023.20 1023.51 1023.80 1024.03 1024.17 1024.21 1024.13 1023.94 1023.66 1023.31 1022.90 1022.46 1022.01 1021.55 1021.09 1020.64 1020.19 1019.75 1019.32 1018.90 1018.52 1018.19 1017.91 1017.70 1017.56 1017.48 1017.44
1021.31 1021.56 1021.76 1021.91 1022.02 1022.11 1022.19 1022.29 1022.43 1022.61 1022.83 1023.09 1023.36 1023.63 1023.85 1024.00 1024.07 1024.03 1023.90 1023.67 1023.36 1022.98 1022.55 1022.08 1021.59 1021.07 1020.54 1020.00 1019.47 1018.94 1018.44 1017.97 1017.57 1017.23 1016.98 1016.81 1016.71 1016.68
1021.16 1021.43 1021.66 1021.84 1021.99 1022.10 1022.20 1022.30 1022.42 1022.57 1022.75 1022.96 1023.19 1023.41 1023.61 1023.77 1023.85 1023.86 1023.78 1023.60 1023.34 1023.00 1022.59 1022.13 1021.61 1021.06 1020.47 1019.86 1019.24 1018.63 1018.05 1017.51 1017.03 1016.62 1016.31 1016.09 1015.95 1015.90
1020.95 1021.24 1021.50 1021.72 1021.91 1022.06 1022.18 1022.29 1022.41 1022.53 1022.68 1022.85 1023.03 1023.22 1023.39 1023.53 1023.62 1023.65 1023.60 1023.47 1023.26 1022.96 1022.58 1022.14 1021.62 1021.05 1020.43 1019.77 1019.10 1018.42 1017.77 1017.16 1016.61 1016.13 1015.75 1015.46 1015.27 1015.16
1020.71 1021.02 1021.31 1021.58 1021.81 1022.00 1022.15 1022.29 1022.41 1022.52 1022.65 1022.78 1022.92 1023.07 1023.21 1023.32 1023.41 1023.44 1023.41 1023.32 1023.14 1022.87 1022.53 1022.11 1021.61 1021.04 1020.41 1019.73 1019.03 1018.32 1017.62 1016.95 1016.34 1015.79 1015.34 1014.98 1014.71 1014.53
1020.44 1020.78 1021.11 1021.42 1021.69 1021.92 1022.11 1022.27 1022.41 1022.53 1022.64 1022.74 1022.85 1022.96 1023.06 1023.15 1023.21 1023.23 1023.21 1023.13 1022.97 1022.74 1022.43 1022.03 1021.56 1021.01 1020.40 1019.73 1019.02 1018.30 1017.58 1016.87 1016.22 1015.62 1015.09 1014.66 1014.31 1014.06
1020.15 1020.53 1020.89 1021.23 1021.54 1021.80 1022.04 1022.23 1022.38 1022.51 1022.61 1022.71 1022.79 1022.86 1022.93 1022.98 1023.01 1023.01 1022.98 1022.89 1022.75 1022.54 1022.25 1021.89 1021.46 1020.95 1020.37 1019.73 1019.05 1018.33 1017.61 1016.90 1016.22 1015.58 1015.00 1014.50 1014.09 1013.76
1019.84 1020.23 1020.62 1020.98 1021.32 1021.62 1021.88 1022.10 1022.27 1022.41 1022.52 1022.60 1022.67 1022.72 1022.75 1022.77 1022.77 1022.75 1022.69 1022.60 1022.46 1022.26 1022.00 1021.68 1021.28 1020.81 1020.28 1019.69 1019.05 1018.37 1017.68 1016.97 1016.29 1015.63 1015.02 1014.48 1014.01 1013.63
1019.47 1019.88 1020.28 1020.65 1021.00 1021.32 1021.60 1021.83 1022.03 1022.18 1022.30 1022.39 1022.44 1022.48 1022.49 1022.48 1022.45 1022.41 1022.33 1022.23 1022.09 1021.90 1021.66 1021.37 1021.02 1020.60 1020.12 1019.58 1018.99 1018.36 1017.70 1017.03 1016.36 1015.71 1015.09 1014.53 1014.03 1013.61
1019.03 1019.44 1019.83 1020.21 1020.56 1020.88 1021.16 1021.41 1021.62 1021.79 1021.93 1022.02 1022.08 1022.11 1022.12 1022.10 1022.05 1021.99 1021.90 1021.79 1021.64 1021.47 1021.25 1020.99 1020.67 1020.30 1019.87 1019.39 1018.85 1018.27 1017.66 1017.02 1016.38 1015.75 1015.15 1014.59 1014.09 1013.66
1018.49 1018.89 1019.27 1019.63 1019.97 1020.28 1020.57 1020.83 1021.05 1021.24 1021.39 1021.51 1021.59 1021.63 1021.64 1021.62 1021.57 1021.50 1021.41 1021.29 1021.15 1020.99 1020.79 1020.55 1020.27 1019.93 1019.55 1019.11 1018.62 1018.08 1017.51 1016.92 1016.32 1015.73 1015.16 1014.63 1014.16 1013.75
1017.85 1018.23 1018.59 1018.93 1019.25 1019.55 1019.84 1020.10 1020.34 1020.56 1020.74 1020.88 1020.98 1021.05 1021.08 1021.07 1021.03 1020.97 1020.89 1020.78 1020.65 1020.50 1020.31 1020.09 1019.84 1019.53 1019.18 1018.77 1018.32 1017.82 1017.29 1016.74 1016.19 1015.64 1015.12 1014.64 1014.21 1013.83
1017.10 1017.47 1017.81 1018.13 1018.43 1018.73 1019.01 1019.29 1019.55 1019.78 1019.99 1020.17 1020.31 1020.41 1020.46 1020.48 1020.47 1020.43 1020.36 1020.27 1020.15 1020.02 1019.85 1019.65 1019.42 1019.13 1018.80 1018.42 1017.99 1017.52 1017.02 1016.51 1016.00 1015.50 1015.03 1014.61 1014.24 1013.92
1016.26 1016.62 1016.94 1017.25 1017.55 1017.84 1018.13 1018.41 1018.69 1018.96 1019.20 1019.41 1019.59 1019.72 1019.81 1019.87 1019.88 1019.87 1019.83 1019.76 1019.67 1019.56 1019.42 1019.24 1019.02 1018.75 1018.44 1018.07 1017.66 1017.21 1016.74 1016.26 1015.79 1015.35 1014.94 1014.58 1014.27 1014.01
1015.34 1015.69 1016.02 1016.32 1016.61 1016.91 1017.21 1017.51 1017.81 1018.11 1018.38 1018.62 1018.83 1019.00 1019.13 1019.22 1019.26 1019.28 1019.27 1019.24 1019.18 1019.10 1018.98 1018.83 1018.64 1018.39 1018.09 1017.75 1017.35 1016.93 1016.48 1016.04 1015.61 1015.21 1014.86 1014.56 1014.32 1014.12
1014.37 1014.72 1015.05 1015.35 1015.66 1015.96 1016.27 1016.59 1016.91 1017.23 1017.52 1017.79 1018.03 1018.23 1018.38 1018.50 1018.58 1018.63 1018.66 1018.66 1018.65 1018.60 1018.52 1018.41 1018.24 1018.03 1017.76 1017.43 1017.07 1016.67 1016.25 1015.84 1015.46 1015.11 1014.81 1014.57 1014.39 1014.25
Thickness
5675 5674 5673 5673 5672 5672 5671 5669 5665 5663 5664 5666 5667 5668 5667 5667 5666 5666 5665 5664 5663 5663 5663 5662 5661 5661 5661 5660 5659 5659 5658 5657 5656 5655 5654 5653 5652 5651
5671 5670 5669 5669 5668 5668 5667 5666 5665 5663 5661 5662 5662 5662 5662 5662 5662 5661 5660 5659 5659 5659 5659 5658 5658 5657 5657 5656 5655 5654 5654 5652 5652 5651 5650 5649 5648 5647
5666 5666 5666 5665 5664 5664 5663 5662 5661 5660 5658 5658 5658 5657 5657 5657 5657 5656 5655 5655 5655 5655 5654 5654 5654 5653 5653 5652 5652 5651 5650 5649 5648 5648 5646 5645 5644 5643
5662 5662 5662 5661 5660 5660 5659 5658 5657 5656 5655 5653 5653 5652 5652 5652 5651 5650 5651 5650 5650 5651 5650 5650 5650 5649 5649 5648 5648 5647 5646 5646 5645 5644 5643 5641 5640 5638
5658 5658 5658 5657 5656 5655 5655 5654 5653 5652 5650 5649 5648 5647 5646 5646 5645 5645 5646 5645 5646 5646 5646 5646 5645 5645 5645 5645 5644 5643 5642 5642 5641 5639 5638 5637 5636 5634
5653 5654 5654 5653 5653 5652 5651 5649 5648 5646 5645 5643 5642 5641 5640 5640 5639 5639 5640 5640 5641 5642 5641 5641 5641 5641 5641 5641 5640 5639 5638 5637 5636 5635 5634 5632 5631 5629
5649 5649 5650 5650 5650 5649 5648 5646 5644 5641 5640 5638 5637 5636 5635 5634 5634 5634 5634 5634 5635 5635 5636 5637 5637 5637 5637 5637 5636 5636 5635 5634 5633 5631 5630 5628 5627 5625
5644 5644 5644 5645 5645 5644 5644 5642 5640 5638 5635 5634 5632 5631 5631 5630 5629 5628 5628 5628 5629 5631 5630 5632 5632 5632 5633 5633 5633 5632 5631 5631 5629 5628 5626 5625 5623 5620
5639 5639 5640 5641 5639 5639 5638 5637 5635 5634 5633 5632 5630 5630 5629 5627 5625 5623 5623 5623 5624 5625 5624 5627 5628 5628 5630 5630 5630 5629 5628 5627 5626 5624 5623 5621 5619 5616
5636 5635 5634 5634 5635 5634 5632 5631 5630 5629 5628 5628 5628 5628 5626 5624 5622 5621 5620 5619 5620 5620 5619 5620 5623 5624 5626 5627 5627 5626 5625 5623 5622 5621 5619 5617 5615 5612
5631 5631 5630 5630 5630 5628 5627 5626 5625 5624 5624 5623 5623 5622 5621 5620 5618 5616 5615 5614 5616 5617 5615 5615 5618 5619 5621 5623 5623 5622 5621 5620 5618 5617 5615 5613 5610 5607
5626 5626 5626 5625 5624 5623 5622 5621 5620 5620 5618 5618 5616 5616 5615 5614 5613 5613 5612 5611 5611 5612 5613 5611 5612 5612 5615 5618 5617 5617 5616 5615 5614 5612 5611 5609 5605 5602
5621 5621 5621 5620 5619 5618 5617 5616 5616 5614 5612 5611 5611 5610 5610 5610 5610 5609 5608 5608 5608 5609 5609 5606 5607 5606 5607 5610 5612 5612 5611 5610 5609 5608 5607 5605 5602 5598
5616 5617 5617 5615 5614 5612 5611 5611 5610 5608 5607 5606 5605 5605 5606 5606 5606 5605 5605 5605 5605 5605 5605 5603 5602 5602 5601 5602 5605 5607 5607 5606 5605 5604 5603 5601 5598 5595
5612 5612 5611 5610 5608 5607 5607 5606 5604 5603 5602 5601 5602 5602 5603 5602 5601 5601 5601 5600 5600 5600 5600 5599 5598 5598 5597 5598 5600 5601 5601 5601 5600 5600 5598 5597 5595 5592
5606 5605 5605 5604 5603 5602 5602 5601 5600 5599 5598 5598 5598 5598 5598 5597 5596 5596 5596 5597 5597 5598 5597 5596 5595 5594 5594 5594 5594 5596 5596 5596 5597 5595 5594 5593 5591 5589
5600 5599 5599 5599 5599 5598 5598 5597 5597 5596 5595 5594 5594 5593 5593 5593 5593 5592 5592 5592 5592 5593 5594 5593 5591 5590 5590 5590 5591 5593 5594 5593 5593 5591 5589 5589 5588 5586
5595 5596 5596 5595 5595 5595 5594 5594 5593 5592 5592 5591 5590 5590 5590 5589 5589 5588 5588 5588 5589 5589 5589 5589 5587 5587 5587 5589 5588 5590 5591 5590 5589 5587 5585 5584 5585 5584
5592 5593 5592 5592 5592 5591 5591 5590 5590 5590 5588 5587 5587 5587 5586 5586 5585 5585 5585 5585 5586 5586 5586 5586 5585 5585 5586 5588 5590 5587 5587 5587 5585 5583 5582 5581 5582 5581
5589 5590 5590 5589 5588 5588 5588 5588 5588 5586 5585 5584 5584 5584 5583 5583 5583 5583 5583 5583 5584 5584 5584 5584 5584 5584 5584 5585 5586 5585 5584 5583 5582 5581 5580 5578 5577 5576
5586 5586 5587 5586 5586 5586 5585 5585 5585 5584 5583 5582 5582 5582 5581 5581 5581 5581 5581 5580 5580 5581 5581 5583 5583 5582 5582 5580 5581 5583 5582 5580 5579 5578 5577 5575 5575 5574
5584 5584 5583 5583 5582 5582 5582 5582 5582 5581 5581 5580 5580 5580 5579 5579 5579 5578 5578 5578 5578 5579 5579 5580 5579 5578 5578 5578 5580 5579 5578 5577 5575 5573 5572 5572 5572 5572
5580 5580 5580 5579 5579 5578 5577 5578 5578 5578 5578 5577 5577 5577 5577 5577 5576 5576 5576 5576 5576 5576 5576 5576 5576 5575 5576 5576 5576 5575 5574 5572 5571 5570 5569 5568 5567 5567